Regional Weather Roundup
Issued by NWS Wakefield, VA

Home | Current Version | Previous Version | Graphics & Text | Print | Product List | Glossary On
Versions: 1 2 3 4 5 6 7 8 9 10 11 12 13 14 15 16 17 18 19 20 21 22 23 24 25 26 27 28 29 30 31 32 33 34 35 36 37 38 39 40 41 42 43 44 45 46 47 48 49 50
000
ASUS41 KAKQ 051510
RWRAKQ

REGIONAL WEATHER ROUNDUP
NATIONAL WEATHER SERVICE WAKEFIELD VA
1000 AM EST THU MAR 05 2015

Note: "fair" indicates few or no clouds below 12,000 feet with no
significant weather and/or obstructions to visibility. * = Denotes
station may not report precipitation (e.g., rain,snow,etc.),
thunder or fog.

VAZ042-051-052>054-056-051600-
NORTHERN VIRGINIA

CITY           SKY/WX    TMP DP  RH WIND       PRES   REMARKS
WASH NATIONAL  LGT SNOW  34  29  82 N13       30.14R VSB 1   WCI  25
DULLES         SNOW      28  27  93 N12       30.15R VSB 1/2 WCI  18
FORT BELVOIR   LGT SNOW  32  28  86 NW9       30.14R FOG
QUANTICO       LGT SNOW  32  29  88 N13G25    30.16R FOG     WCI  22
FREDERICKSBRG* LGT RAIN  34  34 100 N10       30.14R
STAFFORD*      LGT SNOW  32  32 100 CALM      30.17R
WARRENTON      LGT SNOW  32  32 100 N12       30.14R WCI  23
CULPEPER*      LGT SNOW  32  30  93 N13       30.14R WCI  22
MANASSAS*      LGT SNOW  32  32 100 N12G18    30.16R VSB 3/4 WCI  23
LEESBURG*      SNOW      30  30 100 N10       30.16R VSB 1/2 WCI  21
WINCHESTER     SNOW      30  27  86 NW7       30.17R VSB 1/4
FRONT ROYAL*   CLOUDY    28  27  93 NW8       30.15R VSB<1/4
LURAY*         SNOW      32  32 100 NE9       30.13R VSB 1/2
$$

VAZ048-049-060>072-079>083-051600-
CENTRAL AND SOUTH CENTRAL VIRGINIA

CITY           SKY/WX    TMP DP  RH WIND       PRES   REMARKS
RICHMOND       LGT RAIN  38  35  89 N10       30.09R FOG
CHESTERFIELD*  CLOUDY    37  27  65 N7        30.08F
PETERSBURG*    LGT RAIN  38  37  95 N12G18    30.08S
HANOVER        LGT RAIN  36  34  92 NE8       30.11R FOG
TAPPAHANNOCK*  RAIN      36  34  92 N8        30.13R
QUINTON*       CLOUDY    37  35  96 N6        30.10R
CHARLOTTSVILLE LGT RAIN  33  31  92 NE12      30.07R FOG     WCI  24
GORDONSVILLE*  CLOUDY    32  30  93 NE14G21   30.08F FOG     WCI  22
ORANGE*        MIX PCPN  34  32  93 N9G17     30.11S
LOUISA*        MIX PCPN  34  32  93 NE12G21   30.07F
BUMPASS*       CLOUDY    33  32  95 N10G21    30.10R WCI  25
FARMVILLE*     CLOUDY    37  37 100 NE13G21   29.83F
CREWE*         CLOUDY    37  35  92 NE9G23    30.05F
FORT PICKETT*  CLOUDY    36  35  96 NE9G22    30.05S
CHASE CITY*    CLOUDY    39  39 100 NE7       30.02S
CLARKSVILLE*   CLOUDY    37  37 100 NE12G20   30.02S
SOUTH HILL*    CLOUDY    37  36  95 NE8G16    30.07S
LAWRENCEVILLE* CLOUDY    37  36  96 N8G20     30.02S
EMPORIA*       RAIN      37  37 100 N6G18     30.06R
$$

VAZ088>098-051600-
SOUTHEAST VIRGINIA

CITY           SKY/WX    TMP DP  RH WIND       PRES   REMARKS
NORFOLK        FOG       37  34  89 N18       30.06R VSB 1
VIRGINIA BEACH LGT RAIN  40  37  89 N13G23    30.06R FOG
NORFOLK NAVAL  LGT RAIN  39  34  82 N22G29    30.09R FOG
WEST POINT*    CLOUDY    38  35  89 N7        30.13R
SALUDA*        CLOUDY    35  33  92 N7        30.09R
NEWPORT NEWS   LGT RAIN  39  34  82 N10G25    30.09R
LANGLEY AFB    MIX PCPN  36  36 100 NE16      30.07R FOG
FORT EUSTIS    LGT RAIN  37  37 100 NE7       30.08R FOG
WILLIAMSBURG*  CLOUDY    39  37  93 N8G22     30.11R
HR EXEC AP*    CLOUDY    37  34  87 N8G25     30.09R
FRANKLIN*      DRIZZLE   38  37  94 NE14G22   30.06R
WAKEFIELD      LGT RAIN  38  35  89 NE12G18   30.06S FOG
$$

VAZ020-022-025-037-045-051600-
WEST CENTRAL AND SOUTHWEST VIRGINIA

CITY           SKY/WX    TMP DP  RH WIND       PRES   REMARKS
STAUNTON*      LGT SNOW  30  28  90 NE15      30.10R VSB 1   WCI  19
WAYNESBORO*    CLOUDY    31  29  94 N10G18    30.07R WCI  22
HOT SPRINGS VA SNOW      27  27 100 CALM      29.93R VSB<1/4
LYNCHBURG      LGT RAIN  37  36  96 NE12      30.02R
DANVILLE       LGT RAIN  42  38  85 NE15G24   29.97R
SOUTH BOSTON*  CLOUDY    39  37  93 NE7       30.01R
MARTINSVILLE   DRIZZLE   43  43 100 N7        30.02R
ROANOKE        RAIN      38  36  92 NW6       30.07R FOG
BLACKSBURG     LGT SNOW  32  32  99 W5        30.03R
DUBLIN*        MIX PCPN  34  34 100 NW8G16    30.01F
MARION*        RAIN      35  32  89 NW7       30.01F
HILLSVILLE*    MIX PCPN  33  32  99 N7        29.97S
RICHLANDS*     LGT SNOW  28  26  92 N7        30.05R
WISE*          LGT SNOW  25  25 100 N9        30.08R VSB 1
ABINGDON*      LGT RAIN  34  32  93 N7        30.03R
$$

MDZ021>025-VAZ099-100-051600-
SOUTHERN MARYLAND AND THE DELMARVA PENINSULA

CITY           SKY/WX    TMP DP  RH WIND       PRES   REMARKS
PATUXENT RIVER LGTSLEET  33  30  88 N21G26    30.11R FOG     WCI  21
BAY BRIDGE APT LGT SNOW  32  32 100 N6        30.13R VSB 3/4
LEONARDTOWN    CLOUDY    32  32 100 N6        30.13R
DOVER          LGTSLEET  33  33 100 N12       30.11R WCI  24
GEORGETOWN     LGT RAIN  35  32  88 N8        30.10R FOG
EASTON         LGTSLEET  34  34 100 N9        30.14S FOG
CAMBRIDGE      CLOUDY    36  34  93 N10       30.10S
SALISBURY      LGT RAIN  38  33  82 N12       30.07F
OCEAN CITY     CLOUDY    35  34  96 N13       30.08R FOG
WALLOPS ISLAND LGT RAIN  36  34  92 N14G24    30.07R FOG
ACCOMACK*      DRIZZLE   36  34  93 N12G18    30.06R
$$

NCZ012>017-030>032-051600-
NORTH CENTRAL AND EASTERN NORTH CAROLINA

CITY           SKY/WX    TMP DP  RH WIND       PRES   REMARKS
ROANOKE RAPIDS RAIN      43  41  93 N13       30.00R
RALEIGH        RAIN      55  52  89 N8G18     29.93R FOG
ELIZABETH CITY LGT RAIN  41  39  93 NE18G28   30.03S
AHOSKIE*       LGT RAIN  41  39  95 NE15G23   30.02R
EDENTON*       CLOUDY    44  43  96 NE10G16   29.99F
CURRITUCK*     LGT RAIN  40  38  94 NE14G23   30.03F
KILL DEVIL HLS CLOUDY    39  39 100 N9G18     30.01R FOG
MANTEO         CLOUDY    39  39 100 N26G32    30.02R FOG
CAPE HATTERAS  FOG       59  59 100 SW12      29.97F VSB 1/4
TARBORO*       CLOUDY    48  45  90 NE13      29.97S
GOLDSBORO      PTSUNNY   71  71  98 SW17G25   29.89F
WASHINGTON     PTSUNNY   70  62  75 SW8       29.93F
GREENVILLE     PTSUNNY   70  63  78 SW3       29.94F
NEW BERN       MOSUNNY   75  61  61 SW12      29.95F
WILMINGTON     SUNNY     71  63  75 SW18G29   29.98S
$$

VAZ048-051600-
ELSEWHERE

CITY           SKY/WX    TMP DP  RH WIND       PRES   REMARKS
HARRISBURG PA  SNOW      28  26  92 N15G23    30.13F VSB 1/2 WCI  16
BALTIMORE      NOT AVBL
ANNAPOLIS      LGT SNOW  32  30  92 N9        30.12S VSB 3/4
ANDREWS AFB    LGT SNOW  32  30  93 N12       30.11R FOG     WCI  23
PHILADELPHIA   SNOW      30  28  92 N15       30.13R VSB 1/2 WCI  19
HENDERSON NC   RAIN      39  37  91 NE16G24   29.99S
GREENSBORO     RAIN      45  43  93 NE9       29.92S FOG
ROCKY MOUNT    CLOUDY    52  49  89 N13G18    29.94R
$$

VAZ100-051600-
MARINE

STATION/POSITION TIME  TEMP    WIND        PRES    WAVE   SWELL
                       AIR SEA DIR/SP/G            HT/PER HT/PER
                 (UTC) (F)     (DEG/KT/KT) (MB)    (FT/S) (FT/S)
BRANDYWINE LGT   1500   33 31   10/ 12/ 15 1018.9F
CAPE MAY NJ      1500   33 35   30/  8/ 13 1018.2F
LEWES DE         1500   33 32   10/ 12/ 14 1018.5F
15NM E FENWICK I 1500   34 35              1017.8R   3/ 7
OCEAN-CITY-INLET 1500   34 33   10/ 13/ 16 1018.0R
WACHAPREAGUE VA  1500   37 39   10/  6/ 11 1017.4F
THOMAS POINT MD  1500   31 32  350/ 12/ 13 1020.9R
COVE POINT MD    1500   31      20/ 22/ 25 1019.2R
SOLOMONS ISLAND  1500      33                N/A
BISHOPS HEAD MD  1500   34 36  360/  8/ 13 1018.6R
CAMBRIDGE MD     1500   33 32  350/ 12/ 16 1019.4R
LEWISETTA VA     1500   34 34   20/  7/ 11 1019.3R
RAPPAHANNOCK LGT 1500          360/ 22/ 25 1018.5R
STINGRAY PT      1500   34      10/ 17/ 21   N/A
YORK RVR RNG VA  1500   36      20/ 24/ 28 1017.5R
YORKTOWN VA      1500   36 35   20/ 14/ 20 1018.4F
DOMINION TERM VA 1500   37      20/ 14/ 23 1018.4R
KIPTOPEKE VA     1500      40   10/ 10/ 15   N/A
CHES BAY BRIDGE  1500   35 34  350/ 15/ 18 1017.2S
CAPE HENRY VA    1500   36      10/ 16/ 18 1015.9F
CHESAPEAKE LGHT  1400   37      20/ 22/ 24 1017.1R
WILLOUBY STN VA  1500   35      10/ 21/ 25 1018.6R
S CRANEY ISL VA  1500           10/ 19/ 24 1017.9R
CAPE HENRY BUOY  1500      36                N/A     5/ 5   2/11
1ST LANDING BUOY 1500   35     360/ 12/ 14 1017.0R
OFFSHORE WE BUOY 1500      37                N/A     6/ 5   2/11
64NM E OF VA BCH 1500   46 51   10/ 23/ 27 1014.4F   6/ 5
DUCK PIER NC     1500   37 36   10/ 18/ 22 1015.4F
44100 DUCK FRF   1400      38                N/A     5/ 7   2/11
44056 DUCK FRF   1500      35                N/A     4/ 4
OREGON INLET NC  1500      50  350/ 12/ 17 1015.7S
HATTERAS NC      1500   60 49  220/ 11/ 15 1015.1F
CAPE LOOKOUT NC  1500   62     220/ 13/ 20 1015.0F
$$


USA.gov is the U.S. government's official web portal to all federal, state and local government web resources and services.